SL-8 DEB, 1634

Orbit data source: Space-Track

SL-8 DEB, 1634 is space debris in LEO originally from a launch on Mon, 15 Mar 1965 UTC launched from the Tyuratam Missile And Space Complex (TTMTR). Debris objects in space refer to the collection of defunct objects orbiting the Earth. Examples of debris include non-operational satellites, rocket bodies, and fragments generated from explosions, collisions, or faulty payload assembly.

Loading next visibility...
Identifier
1634, 1965-020ED
Orbit
LEO
Country
Flag of CISCIS
Related business
Manufacturer
Unknown
Mission
Spacecraft
Bus & Motor
Unknown
Mass
Unknown
Launch date (UTC)
1965-03-15 (61 years ago)
Launch vehicle
Unknown
Launch site
Tyuratam Missile And Space Complex (TTMTR)
Object type
Payload
Rocket body
Debris
Shape & HBR
Unknown shape, 0.1 m
Radar Cross Section
Medium (>0.1 m² and <1 m²)

Expand to show TLE details & history
Last TLE update: 17 hours ago

TLE from 17 hours ago
0 SL-8 DEB
1 01634U 65020ED  26254.51602412 -.00000034  00000-0  10851-3 0  9993
2 01634  56.1549 188.4528 0852927 196.2824 160.9037 12.48579904773267
Epoch: 2026-09-11T12:23Z
TLE epoch observation values (Epoch: 2026-09-11T12:23:04.483Z)
Latitude
0.00001°
Longitude
12.14586°
Altitude
2,109.533 km
Speed
6.57 km/s
True Right ascension
12h 33m 48s
True Declination
0° 00' 00"
Sunlit
Object was in daylight at epoch
Visualization orbit readout
Latitude
Unknown
Longitude
Unknown
Altitude
Unknown
Speed
Unknown
Apparent Right ascension
Unknown
Apparent Declination
Unknown
Sunlit
N/A
Visualization observer readout
Local Sidereal Time
21:44:51
Azimuth
Unknown
Elevation
Unknown
Doppler factor
Unknown
Orbital elements
Apogee altitude
2,139.658 km
Perigee altitude
800.838 km
Semi-major axis
7,848.385 km
Eccentricity
0.08529
Inclination
56.1549°
RAAN
188.4528°
Arg. of periapsis
196.2824°
True anomaly
163.80646°
Mean anomaly
160.9037°
Eccentric anomaly
162.38276°
Mean motion
3.12157 °/min
Orbital period
115.33 mins
BSTAR
0.00010851
Loading maneuver chart data...
Computing Atmospheric mass density...
Loading historical data...
Loading historical data...
Loading historical data...
Loading historical data...
Loading historical data...
Loading historical data...
Loading historical data...

Documentation

Showing up to 5 results
|